JBU118 KJFK-KBOS

Flight info

Callsign JBU118
Flight time N/A
Altitude 21000
Route DCT MERIT ROBUC3
Aircraft A320/M-SDE3FGHIRWY/LB1

Departure

Time 2026-05-04 16:33
Airport John F. Kennedy International Airport (KJFK)

Arrival

Time N/A
Airport Boston Logan International Airport (KBOS)
Time Latitude Longitude Altitude Speed Heading
2026-05-04 16:13 40.64422 -73.77596 21 ft 0 kts 339°
2026-05-04 16:16 40.64418 -73.77595 20 ft 0 kts 339°
2026-05-04 16:25 40.64407 -73.77589 22 ft 4 kts
2026-05-04 16:26 40.64388 -73.77596 22 ft 0 kts
2026-05-04 16:28 40.64426 -73.77443 20 ft 7 kts 49°
2026-05-04 16:29 40.64448 -73.77212 20 ft 0 kts 95°
2026-05-04 16:30 40.64434 -73.77099 20 ft 10 kts 104°
2026-05-04 16:31 40.64413 -73.76991 22 ft 0 kts 105°
2026-05-04 16:31 40.64364 -73.76909 20 ft 15 kts 154°
2026-05-04 16:32 40.63896 -73.77235 21 ft 78 kts 211°
2026-05-04 16:33 40.62410 -73.78403 322 ft 147 kts 210°
2026-05-04 16:33 40.60599 -73.79814 1402 ft 164 kts 211°
2026-05-04 16:34 40.58358 -73.81502 2039 ft 206 kts 212°
2026-05-04 16:34 40.57029 -73.82477 2402 ft 231 kts 211°
2026-05-04 16:35 40.52356 -73.81150 4859 ft 281 kts 123°
2026-05-04 16:35 40.53879 -73.74196 7392 ft 294 kts 30°
2026-05-04 16:36 40.55585 -73.72704 8270 ft 295 kts 29°
2026-05-04 16:36 40.59152 -73.70014 10018 ft 297 kts 23°
2026-05-04 16:37 40.63039 -73.67346 10643 ft 338 kts 23°
2026-05-04 16:37 40.65192 -73.65874 10844 ft 358 kts 23°
2026-05-04 16:37 40.69690 -73.62736 12046 ft 372 kts 24°
2026-05-04 16:38 40.74293 -73.59461 13528 ft 380 kts 24°
2026-05-04 16:39 40.81368 -73.54434 15466 ft 389 kts 24°
2026-05-04 16:39 40.86158 -73.51036 16726 ft 393 kts 24°
2026-05-04 16:40 40.91011 -73.47582 17974 ft 399 kts 23°
2026-05-04 16:40 40.95937 -73.44077 19154 ft 405 kts 23°
2026-05-04 16:41 41.00923 -73.40525 20353 ft 408 kts 23°
2026-05-04 16:41 41.08526 -73.35115 20981 ft 428 kts 24°
2026-05-04 16:42 41.16559 -73.29351 20984 ft 444 kts 24°
2026-05-04 16:43 41.21992 -73.25433 20978 ft 444 kts 24°
2026-05-04 16:43 41.27427 -73.21523 20980 ft 444 kts 24°
2026-05-04 16:43 41.30144 -73.19567 20981 ft 444 kts 24°
2026-05-04 16:44 41.38107 -73.08858 20983 ft 465 kts 63°
2026-05-04 16:45 41.39646 -73.00453 20970 ft 471 kts 79°
2026-05-04 16:46 41.41030 -72.87488 20958 ft 472 kts 79°
2026-05-04 16:46 41.41957 -72.78833 20959 ft 471 kts 79°
2026-05-04 16:47 41.42874 -72.70174 20928 ft 471 kts 79°
2026-05-04 16:47 41.43777 -72.61526 20941 ft 471 kts 79°
2026-05-04 16:48 41.45120 -72.48542 20923 ft 472 kts 80°
2026-05-04 16:48 41.45568 -72.44212 20929 ft 472 kts 80°
2026-05-04 16:49 41.46457 -72.35548 20943 ft 472 kts 80°
2026-05-04 16:49 41.47338 -72.26878 20935 ft 472 kts 80°
2026-05-04 16:50 41.48899 -72.18431 20924 ft 468 kts 65°
2026-05-04 16:50 41.51721 -72.10641 20921 ft 466 kts 60°
2026-05-04 16:51 41.54569 -72.02862 20924 ft 467 kts 61°
2026-05-04 16:51 41.55976 -71.98944 20925 ft 467 kts 62°
2026-05-04 16:51 41.58503 -71.90936 20937 ft 469 kts 66°
2026-05-04 16:52 41.60800 -71.82846 20921 ft 468 kts 67°
2026-05-04 16:52 41.61938 -71.78803 20068 ft 464 kts 66°
2026-05-04 16:53 41.64172 -71.71067 19188 ft 418 kts 66°
2026-05-04 16:53 41.67120 -71.61089 18463 ft 368 kts 65°
2026-05-04 16:54 41.68061 -71.57920 18221 ft 366 kts 65°
2026-05-04 16:55 41.71751 -71.45314 17007 ft 362 kts 66°
2026-05-04 16:55 41.74002 -71.39368 16118 ft 357 kts 57°
2026-05-04 16:56 41.76471 -71.33613 15232 ft 355 kts 57°
2026-05-04 16:56 41.80114 -71.25064 14003 ft 351 kts 57°
2026-05-04 16:57 41.81321 -71.22227 13734 ft 345 kts 57°
2026-05-04 16:57 41.83665 -71.16712 13120 ft 338 kts 57°
2026-05-04 16:58 41.87135 -71.08575 11777 ft 329 kts 57°
2026-05-04 16:58 41.88263 -71.05969 11671 ft 324 kts 57°
2026-05-04 16:59 41.90531 -71.00740 11377 ft 315 kts 57°
2026-05-04 17:00 41.94745 -70.90981 10312 ft 300 kts 57°
2026-05-04 17:00 41.97859 -70.83722 9766 ft 300 kts 57°
2026-05-04 17:01 41.99938 -70.78859 9517 ft 299 kts 57°
2026-05-04 17:01 42.02324 -70.74368 9227 ft 293 kts 43°
2026-05-04 17:02 42.05047 -70.70303 8964 ft 292 kts 44°
2026-05-04 17:02 42.07756 -70.66235 8605 ft 291 kts 43°
2026-05-04 17:03 42.09107 -70.64220 8338 ft 289 kts 41°
2026-05-04 17:03 42.10626 -70.62504 8067 ft 281 kts 26°
2026-05-04 17:03 42.14142 -70.60680 7552 ft 266 kts
2026-05-04 17:04 42.17761 -70.59689 7052 ft 265 kts
2026-05-04 17:04 42.21419 -70.58675 6550 ft 281 kts
2026-05-04 17:05 42.25286 -70.57607 5998 ft 284 kts
2026-05-04 17:05 42.29162 -70.56509 5451 ft 284 kts
2026-05-04 17:06 42.32921 -70.56877 5016 ft 266 kts 330°
2026-05-04 17:06 42.34495 -70.58102 5015 ft 258 kts 314°
2026-05-04 17:07 42.37045 -70.61390 5008 ft 254 kts 309°
2026-05-04 17:07 42.37899 -70.62510 5005 ft 254 kts 309°
2026-05-04 17:07 42.39581 -70.64718 5007 ft 254 kts 309°
2026-05-04 17:07 42.40852 -70.66387 4992 ft 254 kts 309°
2026-05-04 17:08 42.42121 -70.68055 4994 ft 254 kts 309°
2026-05-04 17:08 42.44650 -70.71388 4988 ft 253 kts 309°
2026-05-04 17:08 42.45911 -70.73051 4987 ft 253 kts 309°
2026-05-04 17:09 42.47170 -70.74713 4983 ft 253 kts 309°
2026-05-04 17:09 42.48428 -70.76380 4983 ft 253 kts 309°
2026-05-04 17:09 42.49692 -70.78050 4982 ft 253 kts 309°
2026-05-04 17:10 42.52432 -70.81068 4974 ft 267 kts 334°
2026-05-04 17:10 42.58063 -70.79514 4974 ft 273 kts 15°
2026-05-04 17:11 42.59794 -70.78629 4982 ft 260 kts 15°
2026-05-04 17:11 42.61483 -70.77770 4980 ft 259 kts 14°
2026-05-04 17:11 42.64633 -70.77576 4826 ft 207 kts 313°
2026-05-04 17:12 42.65367 -70.79033 4728 ft 178 kts 277°
2026-05-04 17:12 42.64772 -70.81927 4602 ft 165 kts 227°